Wind_Speed
40 43 39 42 45 47 41 36 42 58 56 54 53 46 48 46 43 41 38 34 34 30 30 25 24 22 22 22 22 22 21 23 22 23 22 22 23 23 24 24 24 24 25 26
44 39 43 47 53 48 42 40 46 57 53 54 52 48 50 50 46 42 41 38 36 34 30 26 24 23 23 22 23 23 24 25 25 25 26 25 26 27 27 28 29 29 28 28
43 41 50 53 54 48 49 43 54 61 53 52 54 53 54 50 47 44 44 41 39 35 29 27 26 24 24 25 24 24 25 25 26 26 27 27 27 29 30 31 32 32 33 33
46 49 52 56 52 51 51 46 55 57 58 58 56 57 55 53 51 50 46 45 41 38 32 30 27 27 27 25 24 25 26 25 26 27 28 30 29 30 32 32 33 35 36 36
49 49 51 53 52 55 54 58 61 61 56 55 58 60 57 56 58 53 47 45 44 40 34 32 31 30 30 29 28 28 28 28 28 29 29 31 33 33 33 33 34 36 37 38
52 53 54 50 55 59 64 59 62 59 58 58 57 60 58 58 57 53 51 47 46 42 38 37 35 33 32 32 32 31 32 32 32 31 32 32 33 35 35 35 35 37 39 41
53 51 51 53 53 51 54 54 57 66 60 62 56 60 58 60 53 52 53 48 46 42 40 39 37 35 35 35 35 34 35 35 35 35 34 35 36 36 36 37 38 39 41 43
55 53 53 51 54 55 58 56 60 64 67 61 58 64 63 57 52 49 48 46 45 44 43 43 40 38 38 38 38 37 38 38 38 38 38 37 38 38 40 40 41 41 42 45
52 51 51 54 55 57 54 60 55 55 58 53 54 58 56 53 52 50 46 46 44 45 46 46 44 42 42 42 41 40 40 39 40 39 40 40 40 42 43 43 43 43 44 45
45 44 47 47 47 48 48 43 46 58 55 57 57 56 57 49 46 45 43 42 44 48 48 47 45 45 44 43 42 41 42 40 41 41 42 42 43 42 43 44 44 45 46 47
44 45 46 46 50 53 49 48 46 43 48 57 54 59 51 42 42 41 41 41 44 46 46 44 44 43 42 41 41 39 40 39 40 42 45 45 43 43 44 46 47 48 49 51
43 42 39 42 46 48 47 44 41 41 44 51 48 48 44 39 39 40 41 41 42 41 41 41 43 44 43 42 41 40 40 41 40 43 44 42 43 43 46 48 50 52 53 55
42 40 39 41 40 41 43 46 48 51 42 43 45 51 44 43 41 37 36 35 35 36 36 40 41 41 41 40 40 40 41 42 41 41 42 44 46 46 48 50 53 53 55 55
48 46 42 46 43 42 45 39 39 40 47 52 54 48 45 40 39 40 38 35 35 36 39 40 41 41 40 40 41 41 42 42 40 44 45 46 47 48 51 55 56 57 58 59
47 48 49 49 47 44 43 45 38 39 42 45 43 46 41 42 40 42 43 44 40 38 41 42 42 42 43 42 40 40 42 44 46 47 49 55 60 61 62 60 60 59 58 59
44 47 44 43 48 46 47 48 51 52 45 50 51 48 40 41 44 46 47 44 40 42 46 47 47 46 47 48 49 51 54 56 58 62 62 61 63 62 60 59 59 60 60 60
42 41 40 40 41 45 45 43 46 51 53 52 51 43 46 45 44 44 43 44 46 49 51 51 52 55 57 58 58 57 58 58 56 54 53 55 57 58 58 58 59 60 60 59
41 39 40 40 41 45 39 39 39 41 41 46 50 50 46 44 46 49 50 49 50 50 50 50 51 49 50 50 50 51 52 53 54 55 56 56 56 56 57 57 57 57 56 55
41 44 50 52 49 45 43 41 39 40 38 34 37 47 52 52 51 49 50 51 49 50 50 50 50 51 51 52 52 53 54 54 55 56 56 55 54 54 55 56 57 56 56 57
47 45 45 47 48 42 39 42 41 42 43 39 39 41 41 42 46 40 41 44 47 46 44 44 45 47 48 49 49 49 48 47 49 50 51 53 53 53 54 55 56 57 59 61
55 54 53 52 51 44 44 48 50 45 37 36 37 39 41 43 44 44 46 46 47 48 48 46 44 43 42 42 41 42 44 45 47 49 50 52 52 54 56 58 59 61 64 66
48 53 56 48 50 49 46 44 43 40 41 43 43 43 44 43 41 38 38 39 40 41 40 40 40 41 41 43 45 47 48 49 50 52 53 55 57 58 59 61 64 65 66 66
41 40 45 47 44 41 38 39 40 38 38 39 39 38 38 40 41 41 41 41 41 40 40 41 42 44 46 49 51 52 52 53 54 56 57 58 60 61 62 63 64 66 67 68
43 40 39 38 38 40 41 42 42 41 39 40 42 43 44 43 43 43 44 45 46 46 46 47 49 50 51 52 53 54 56 57 58 59 61 62 63 64 66 66 67 69 70 71
48 48 45 44 43 41 41 43 45 43 42 43 44 44 44 45 46 47 47 48 50 52 53 54 54 54 55 57 58 60 61 62 63 64 66 68 69 70 70 70 71 70 71 72
50 49 49 46 46 47 48 51 53 53 52 51 50 52 53 53 52 51 52 53 55 56 58 60 60 59 60 62 63 63 64 66 67 69 69 70 70 69 69 69 70 71 71 71
Wind_Direction
235 231 227 219 219 221 216 226 232 217 221 222 223 213 221 220 221 223 226 221 223 221 226 228 235 234 238 242 245 246 252 259 260 259 261 262 263 267 271 272 271 271 277 283
231 231 226 216 212 213 220 220 228 217 218 222 225 219 220 222 220 219 225 224 224 223 223 226 230 236 239 242 243 244 245 251 257 261 263 266 269 270 271 275 277 279 281 283
230 225 221 218 214 219 223 219 214 213 218 223 223 220 221 221 223 222 224 225 226 227 227 230 235 235 238 238 243 246 249 252 256 262 267 268 270 271 274 276 278 280 282 284
225 224 223 219 216 218 222 215 211 214 218 221 223 222 220 219 224 225 224 227 227 230 225 232 238 242 245 247 250 252 255 255 260 264 269 272 270 272 271 274 277 278 280 283
222 220 224 223 217 218 223 213 212 218 221 222 223 226 216 219 226 227 225 230 230 231 231 234 239 243 247 250 252 256 258 261 262 264 268 271 274 273 276 275 277 280 281 282
220 217 222 222 220 224 211 211 215 220 220 225 223 227 220 223 225 227 228 228 232 232 231 234 237 245 250 253 256 259 261 262 263 264 267 269 270 272 275 277 277 279 280 281
215 217 218 219 214 210 212 213 220 222 217 222 223 226 223 224 226 228 232 232 233 237 239 241 241 244 249 254 257 259 262 264 264 265 269 272 272 273 273 275 275 276 279 281
214 214 218 218 216 220 214 214 221 222 217 219 222 226 226 227 230 230 235 237 239 242 243 245 247 249 251 253 256 260 261 263 265 268 270 272 274 275 274 274 275 277 280 281
217 217 216 214 213 211 216 218 220 223 222 226 228 229 232 230 233 233 235 238 241 246 248 249 250 252 254 256 258 259 261 264 266 268 269 270 273 274 275 276 277 279 279 281
215 215 212 215 213 211 219 224 229 221 223 222 225 227 229 227 231 236 236 237 240 244 248 251 253 255 256 258 260 260 260 262 265 267 268 268 269 272 275 276 278 279 281 284
215 215 216 217 215 216 211 213 218 227 234 233 236 233 230 236 237 241 241 238 239 241 244 249 252 255 257 258 259 259 260 260 262 264 266 266 268 271 274 277 279 282 284 286
212 212 215 227 225 224 219 220 228 229 236 236 236 235 234 236 239 238 238 241 242 242 245 247 249 252 253 255 256 258 259 260 260 262 264 268 270 273 275 278 281 283 284 285
210 212 215 215 218 226 225 226 227 224 225 230 238 233 236 237 240 238 235 238 246 246 248 250 251 251 251 252 254 256 257 259 261 264 267 270 274 277 281 281 281 282 285 288
219 214 220 229 237 234 228 221 227 230 231 232 234 236 236 240 243 244 247 248 248 249 250 248 249 250 250 249 249 251 255 258 264 266 270 274 277 279 280 281 284 286 287 289
227 228 223 226 230 231 230 222 222 229 233 234 234 240 237 242 243 245 248 248 243 238 243 246 247 249 249 251 256 261 262 264 266 271 276 280 283 285 284 284 286 287 289 290
225 229 226 230 237 232 229 228 218 225 225 236 237 234 229 229 233 236 238 238 242 244 244 246 249 252 254 258 262 263 266 270 270 277 281 280 279 278 282 285 287 289 290 290
233 231 227 232 233 237 237 235 234 235 236 240 243 241 234 235 239 243 244 243 245 247 249 251 252 254 259 263 266 267 271 272 272 274 276 276 278 281 284 286 286 286 287 287
228 234 240 241 235 237 234 234 237 238 238 242 246 248 241 242 244 246 249 253 252 251 254 256 259 262 265 266 267 268 269 271 274 276 278 280 282 283 284 285 285 285 285 285
219 221 228 235 240 239 239 238 237 242 245 250 249 250 251 250 254 254 253 255 259 259 259 261 260 261 263 265 268 271 273 274 276 278 280 281 281 282 283 283 283 282 284 286
222 222 226 229 237 243 241 248 245 246 241 238 240 244 250 251 251 251 253 253 256 259 261 263 265 268 270 271 271 272 274 275 277 278 279 280 282 283 282 283 283 283 283 284
228 231 234 237 241 245 249 247 247 249 245 247 248 249 252 255 255 254 255 256 257 260 263 265 268 269 270 271 272 274 277 278 279 280 281 281 280 280 281 283 282 281 282 284
235 236 238 238 241 243 248 247 245 250 253 251 249 253 254 253 252 251 253 255 258 260 261 263 266 268 269 272 275 276 276 277 277 277 277 277 278 280 281 281 282 283 285 287
236 234 235 238 238 245 248 251 253 252 251 251 250 247 247 249 254 256 259 260 260 261 263 267 269 272 273 275 277 277 277 278 278 278 278 278 280 281 282 282 283 284 286 286
240 237 238 239 238 245 245 244 247 250 249 249 250 254 255 256 257 258 259 260 261 262 264 267 270 273 276 277 278 278 278 277 278 279 280 281 283 284 285 284 285 285 286 287
244 244 246 246 246 247 248 247 247 249 253 256 257 256 254 257 262 263 263 264 266 268 270 273 275 277 279 280 280 280 281 282 283 283 284 285 285 285 286 287 286 285 285 286
245 247 247 247 245 246 247 249 252 255 258 257 254 254 257 261 263 263 264 266 268 270 271 273 274 276 277 279 279 279 278 279 280 281 282 284 285 285 285 285 284 284 284 283
Height
5756 5762 5771 5775 5781 5786 5790 5795 5801 5808 5813 5818 5824 5829 5836 5843 5846 5851 5857 5859 5862 5864 5865 5868 5870 5871 5871 5874 5875 5875 5876 5876 5878 5878 5877 5878 5878 5878 5878 5877 5876 5876 5875 5874
5751 5761 5765 5765 5772 5778 5782 5786 5793 5800 5805 5811 5818 5825 5828 5833 5839 5845 5850 5853 5858 5859 5861 5862 5865 5867 5867 5869 5870 5872 5871 5872 5872 5873 5872 5873 5874 5872 5871 5871 5870 5870 5870 5868
5746 5754 5752 5755 5763 5770 5777 5780 5785 5793 5798 5802 5809 5814 5820 5825 5831 5836 5842 5847 5852 5856 5857 5858 5860 5861 5863 5863 5864 5865 5866 5866 5867 5867 5868 5868 5868 5867 5866 5865 5864 5863 5862 5861
5734 5740 5745 5750 5756 5763 5769 5774 5778 5785 5790 5794 5800 5805 5811 5817 5821 5827 5834 5838 5845 5849 5851 5854 5854 5855 5857 5858 5858 5859 5861 5860 5861 5860 5860 5861 5860 5860 5858 5858 5857 5856 5854 5853
5729 5732 5736 5743 5753 5755 5763 5764 5770 5775 5781 5785 5791 5796 5806 5808 5814 5821 5829 5833 5837 5840 5843 5847 5848 5848 5850 5851 5851 5852 5854 5855 5855 5855 5855 5853 5853 5851 5851 5851 5850 5849 5847 5845
5716 5721 5727 5738 5740 5745 5750 5754 5760 5766 5771 5773 5785 5791 5800 5803 5810 5815 5820 5823 5827 5832 5835 5839 5841 5841 5843 5844 5846 5846 5847 5848 5849 5848 5849 5848 5846 5845 5844 5843 5842 5841 5839 5837
5708 5713 5722 5726 5728 5732 5739 5747 5752 5756 5757 5768 5777 5780 5791 5796 5802 5809 5812 5817 5822 5824 5827 5831 5834 5835 5836 5837 5838 5838 5839 5840 5841 5841 5840 5840 5839 5839 5838 5836 5833 5831 5830 5828
5697 5705 5713 5718 5723 5731 5732 5739 5740 5743 5750 5760 5765 5768 5777 5789 5795 5803 5806 5810 5814 5817 5820 5822 5824 5827 5829 5830 5831 5831 5831 5832 5832 5832 5832 5830 5830 5829 5829 5827 5825 5823 5822 5820
5692 5699 5705 5708 5715 5721 5723 5727 5738 5741 5745 5753 5759 5766 5773 5784 5790 5796 5799 5801 5805 5808 5811 5814 5815 5817 5819 5821 5822 5822 5823 5822 5823 5823 5824 5822 5821 5819 5819 5817 5816 5814 5812 5810
5687 5692 5697 5703 5709 5711 5718 5729 5728 5731 5738 5744 5749 5757 5764 5775 5783 5787 5791 5793 5796 5798 5801 5803 5805 5808 5810 5811 5812 5812 5813 5813 5814 5814 5815 5813 5812 5810 5809 5808 5806 5804 5801 5799
5678 5684 5692 5696 5698 5705 5711 5713 5718 5726 5733 5738 5744 5749 5761 5769 5775 5778 5781 5784 5787 5788 5791 5793 5795 5797 5798 5800 5801 5802 5803 5803 5804 5805 5805 5803 5802 5801 5800 5799 5796 5794 5791 5788
5671 5677 5683 5689 5694 5701 5703 5709 5716 5722 5728 5731 5736 5744 5754 5761 5765 5769 5772 5774 5776 5779 5782 5783 5786 5787 5789 5790 5791 5792 5793 5794 5794 5794 5794 5793 5792 5790 5789 5788 5786 5783 5779 5776
5666 5671 5677 5682 5689 5692 5696 5703 5708 5712 5719 5723 5732 5739 5746 5752 5756 5760 5762 5764 5767 5769 5771 5773 5776 5778 5780 5781 5782 5783 5783 5783 5783 5783 5783 5782 5781 5779 5778 5776 5774 5771 5767 5763
5659 5665 5673 5677 5685 5689 5692 5697 5702 5706 5711 5718 5721 5732 5739 5745 5747 5749 5751 5754 5758 5760 5763 5766 5768 5769 5771 5772 5773 5773 5773 5772 5772 5773 5773 5772 5770 5768 5765 5763 5760 5756 5753 5749
5652 5658 5664 5670 5676 5680 5685 5691 5696 5699 5706 5709 5721 5722 5733 5734 5737 5738 5742 5746 5748 5751 5755 5758 5759 5760 5761 5762 5762 5762 5762 5762 5762 5762 5761 5759 5757 5754 5751 5748 5746 5742 5738 5734
5645 5650 5657 5662 5667 5671 5675 5680 5684 5690 5696 5700 5703 5711 5719 5720 5722 5727 5730 5734 5738 5741 5744 5746 5748 5749 5750 5751 5751 5751 5750 5750 5750 5749 5747 5745 5743 5741 5737 5734 5730 5727 5723 5720
5639 5644 5651 5654 5659 5662 5664 5673 5679 5684 5686 5692 5693 5707 5707 5712 5715 5718 5719 5722 5727 5730 5732 5735 5736 5737 5738 5739 5740 5739 5739 5738 5737 5736 5734 5732 5729 5726 5723 5720 5716 5713 5710 5706
5630 5637 5641 5645 5649 5651 5660 5666 5671 5674 5679 5682 5685 5691 5697 5700 5704 5705 5709 5712 5716 5718 5721 5722 5723 5724 5724 5725 5725 5725 5724 5724 5722 5721 5719 5718 5715 5712 5709 5706 5703 5699 5695 5692
5622 5628 5631 5634 5639 5647 5650 5655 5663 5666 5671 5676 5679 5682 5687 5689 5689 5694 5697 5698 5703 5704 5705 5707 5709 5711 5712 5712 5712 5711 5711 5710 5709 5707 5706 5703 5701 5698 5695 5692 5689 5685 5682 5678
5614 5620 5624 5628 5631 5635 5643 5646 5652 5655 5657 5667 5670 5672 5674 5676 5676 5688 5686 5686 5689 5691 5692 5693 5695 5697 5698 5698 5698 5698 5697 5696 5695 5693 5691 5689 5687 5684 5682 5679 5675 5672 5668 5664
5605 5609 5613 5619 5622 5627 5630 5635 5640 5645 5657 5656 5659 5660 5662 5665 5668 5672 5674 5676 5678 5679 5680 5681 5682 5683 5684 5685 5684 5684 5683 5682 5681 5679 5677 5675 5673 5670 5668 5665 5661 5657 5652 5648
5596 5600 5604 5610 5612 5615 5620 5622 5629 5637 5638 5642 5648 5650 5652 5654 5657 5660 5661 5663 5665 5667 5668 5669 5670 5671 5671 5671 5671 5670 5669 5668 5666 5664 5662 5659 5657 5654 5651 5648 5644 5640 5635 5631
5585 5591 5596 5601 5606 5609 5613 5617 5620 5623 5627 5629 5633 5637 5641 5644 5646 5649 5650 5652 5654 5656 5657 5658 5658 5658 5658 5658 5658 5656 5654 5653 5651 5649 5647 5644 5641 5638 5635 5631 5627 5623 5618 5613
5575 5580 5584 5591 5596 5598 5601 5605 5608 5611 5615 5619 5622 5626 5630 5633 5636 5638 5639 5641 5642 5644 5645 5646 5647 5646 5645 5644 5643 5642 5641 5639 5637 5634 5631 5628 5625 5622 5617 5613 5609 5604 5599 5594
5566 5571 5577 5581 5585 5588 5591 5594 5598 5602 5605 5608 5611 5614 5617 5620 5622 5625 5628 5630 5630 5631 5631 5631 5631 5631 5631 5630 5628 5627 5625 5624 5621 5618 5615 5612 5608 5604 5599 5594 5589 5585 5580 5576
5553 5559 5564 5570 5573 5575 5579 5581 5585 5589 5593 5597 5600 5603 5605 5607 5609 5611 5612 5614 5616 5617 5618 5618 5618 5617 5616 5614 5613 5610 5608 5606 5603 5600 5596 5593 5589 5585 5580 5575 5570 5565 5561 5556